Content
SEND FEEDBACK

Daily
Averages
Monthly
Summary
Philippines

MANILA, PHILIPPINES


Home > Asia > Philippines
Elevation: 49 feet     Latitude: 14 31N     Longitude: 121 00E

WEATHER
 
SELECT A DAY
Number of Records: 172,604;   Date Range: 7/1/96 - 8/28/14
 
SHARE

PRINT THIS DATA

[ ← Previous Day ]
WEATHER ALMANAC - MAY 7, 2013
[ Next Day → ]
[ °C ]   °F
Weather ElementAverageHighLow
Temperature88.7 °F96.8 °F (3:00 pm)82.4 °F (2:00 am)
Dewpoint73.1 °F75.2 °F (12:00 pm)69.8 °F (4:00 am)
Humidity58.1 %70 % (2:00 am)39 % (5:00 pm)
Barometer29.76 in29.83 in (9:00 am)29.68 in (4:00 pm)
Wind Speed6.9 mph12.7 mph (5:00 pm)
Weather ElementAverage
Visibility6.1 mi
Wind DirectionESE (121.3 °)

Weather ElementTotal
Precipitation---
Cooling Degree Days24.6 (Base 65)
Growing Degree Days39.6 (Base 50)
Averaged from 31 records on May 7, 2013
WEATHER CONDITIONS BREAKOUT
WIND DIRECTION BREAKOUT
WEATHER BY HOUR - MAY 7, 2013
[ °C ]   °F
Local TimeTemperatureDewpointHumidityBarometerVisibilityWind DirectionWind SpeedGust SpeedPrecipitationEventsConditions
1:00 AM84.2 °F71.6 °F66 %29.77 in6.2 miESE (120°)5.8 mphPartly Cloudy
2:00 AM84.0 °F72.0 °F60 %29.77 in6.0 miEast (80°)4.5 mphPartly Cloudy
2:00 AM82.4 °F71.6 °F70 %29.74 in6.2 miEast (80°)3.5 mphScattered Clouds
3:00 AM82.4 °F71.6 °F70 %29.74 in6.2 miEast (90°)3.5 mphPartly Cloudy
4:00 AM82.4 °F69.8 °F66 %29.74 in6.2 miCalmPartly Cloudy
5:00 AM83.0 °F71.0 °F58 %29.77 in6.0 miCalmHaze
5:00 AM84.2 °F69.8 °F62 %29.77 in6.2 miCalmScattered Clouds
6:00 AM84.2 °F69.8 °F62 %29.77 in5.6 miVariable1.2 mphPartly Cloudy
7:00 AM87.8 °F71.6 °F58 %29.80 in6.2 miSE (130°)1.2 mphPartly Cloudy
8:00 AM88.0 °F72.0 °F51 %29.82 in6.0 miENE (70°)4.5 mphHaze
8:00 AM87.8 °F71.6 °F58 %29.80 in6.2 miENE (70°)5.8 mphPartly Cloudy
9:00 AM89.6 °F71.6 °F55 %29.83 in6.2 miNE (50°)5.8 mphPartly Cloudy
10:00 AM89.6 °F73.4 °F59 %29.83 in6.2 miWest (260°)8.1 mphPartly Cloudy
11:00 AM91.0 °F74.0 °F49 %29.81 in6.0 miWest (280°)8.9 mphPartly Cloudy
11:00 AM91.4 °F73.4 °F55 %29.80 in6.2 miWest (280°)10.4 mphPartly Cloudy
12:00 PM89.6 °F75.2 °F62 %29.80 in6.2 miWest (260°)6.9 mphMostly Cloudy
1:00 PM95.0 °F73.4 °F49 %29.77 in6.2 miSE (140°)8.1 mphScattered Clouds
2:00 PM95.0 °F75.0 °F44 %29.74 in6.0 miSSE (150°)8.9 mphScattered Clouds
2:00 PM95.0 °F75.2 °F53 %29.74 in6.2 miSSE (150°)9.2 mphPartly Cloudy
3:00 PM96.8 °F75.2 °F50 %29.71 in6.2 miSE (140°)9.2 mphPartly Cloudy
4:00 PM95.0 °F75.2 °F53 %29.68 in6.2 miSE (140°)9.2 mphPartly Cloudy
5:00 PM95.0 °F73.0 °F39 %29.70 in6.0 miESE (110°)11.2 mphPartly Cloudy
5:00 PM95.0 °F73.4 °F49 %29.68 in6.2 miESE (110°)12.7 mphScattered Clouds
6:00 PM91.4 °F73.4 °F55 %29.71 in6.2 miESE (110°)9.2 mphScattered Clouds
7:00 PM89.6 °F75.2 °F62 %29.74 in6.2 miESE (120°)8.1 mphScattered Clouds
8:00 PM88.0 °F74.0 °F55 %29.77 in6.0 miESE (120°)8.9 mphHaze
8:00 PM87.8 °F73.4 °F62 %29.77 in6.2 miESE (120°)9.2 mphScattered Clouds
9:00 PM87.8 °F73.4 °F62 %29.77 in6.2 miESE (120°)8.1 mphPartly Cloudy
10:00 PM86.0 °F75.2 °F70 %29.77 in6.2 miESE (120°)9.2 mphPartly Cloudy
11:00 PM85.0 °F75.0 °F66 %29.79 in6.0 miESE (110°)11.2 mphHaze
11:00 PM86.0 °F75.2 °F70 %29.77 in6.2 miESE (110°)11.5 mphPartly Cloudy
Hourly data recorded from RPLL, located miles away from Manila, Philippines







STORIES FROM OUR PARTNERS